Creek Data

    Home     View Charts     View Raw Data     Messages

ID Distance Battery Voltage Battery Current Internal Temp Internal Humidity External Temp Solar Input rssi snr Time Stamp Record
68468 14.8 3.72 -5 43 52 45 0 -77 8 03/10/2026 04:15 AM 51335
68467 14.8 3.63 -5 43 52 45 0 -76 8 03/10/2026 04:00 AM 51334
68466 14.8 3.72 -5 43 52 45 0.1 -77 8 03/10/2026 03:45 AM 51333
68465 14.8 3.63 -5 44 52 46 0 -77 8 03/10/2026 03:30 AM 51332
68464 14.8 3.72 -5 44 52 46 0.1 -79 8 03/10/2026 03:15 AM 51331
68463 14.8 3.64 -5 45 53 46 0 -77 8 03/10/2026 03:00 AM 51330
68462 14.8 3.64 -5 46 52 46 0 -77 8 03/10/2026 02:45 AM 51329
68461 14.8 3.64 -5 47 52 49 0 -77 8 03/10/2026 02:30 AM 51328
68460 14.8 3.72 -5 48 52 49 0 -78 7 03/10/2026 02:15 AM 51327
68459 14.8 3.64 -5 48 52 49 0 -77 8 03/10/2026 02:00 AM 51326
68458 14.8 3.64 -5 48 52 50 0 -79 8 03/10/2026 01:45 AM 51325
68457 14.8 3.73 -5 48 53 50 0.1 -78 7 03/10/2026 01:30 AM 51324
68456 14.8 3.64 -5 48 53 49 0.1 -76 8 03/10/2026 01:15 AM 51323
68455 14.8 3.64 -5 50 52 50 0 -76 8 03/10/2026 01:00 AM 51322
68454 14.8 3.64 -5 50 53 52 0 -77 8 03/10/2026 12:45 AM 51321
68453 14.8 3.73 -5 51 53 52 0 -76 8 03/10/2026 12:30 AM 51320
68452 14.8 3.65 -5 52 52 53 0 -77 8 03/10/2026 12:15 AM 51319
68451 14.8 3.65 -5 53 52 54 0 -78 8 03/10/2026 12:00 AM 51318
68450 14.8 3.65 -5 53 52 55 0.1 -77 8 03/09/2026 11:45 PM 51317
68449 14.8 3.65 -5 53 52 55 0.1 -78 8 03/09/2026 11:30 PM 51316
68448 14.8 3.74 -5 53 52 54 0 -79 8 03/09/2026 11:15 PM 51315
68447 14.8 3.65 -5 53 53 55 0 -81 8 03/09/2026 11:00 PM 51314
68446 14.8 3.65 -5 52 54 54 0 -77 8 03/09/2026 10:45 PM 51313
68445 14.8 3.65 -5 53 54 53 0 -77 8 03/09/2026 10:30 PM 51312
68444 14.8 3.74 -5 54 54 55 0 -77 8 03/09/2026 10:15 PM 51311